Flag for Canada Weather past 2 weeks in Regina, Saskatchewan, Canada

Now
59 °F

Scattered clouds.


Feels Like: 57 °F
Forecast: N/A
Wind: 9 mph from Southwest

Location: Regina Weather Station

Current Time: Apr 27, 2015 at 3:34:57 PM

Latest Report: Apr 27, 2015 at 3:00 PM


Visibility: 15 mi

Pressure: 30.31 "Hg

Humidity: 34%

Dew point: 30 °F

Location of ReginaLocation

Historic Weather in Regina — Graph

°F

Regina temperature yesterday

Maximum temperature yesterday: 43 °F (at 12:00 AM)
Minimum temperature yesterday: 34 °F (at 6:00 AM)
Average temperature yesterday: 38 °F

Past Weeks' High & Low Weather Summary

 TemperatureHumidityPressure
High68 °F (Apr 14, 1:00 PM)100% (Apr 25, 8:00 AM)30.38 "Hg (Apr 25, 8:00 AM)
Low19 °F (Apr 20, 5:00 AM)18% (Apr 13, 6:00 PM)29.52 "Hg (Apr 15, 2:00 AM)
Average44 °F58%29.99 "Hg
* Reported Apr 12 2:00 PM — Apr 27 2:00 PM, Regina, Weather by CustomWeather, © 2015

Note: Actual official high and low records may vary slightly from our data, if they occured in-between our weather recording intervals... More about our weather records

Advertising

Regina weather history for previous 24 hours

 ConditionsComfort  
Time TempWeatherWind HumidityBarometerVisibility
2:00 PM
Mon, Apr 27
57 °FPassing clouds.2 mph39%30.32 "Hg15 mi
1:00 PM57 °FPassing clouds.12 mph39%30.33 "Hg15 mi
12:00 PM54 °FPassing clouds.3 mph44%30.35 "Hg15 mi
11:00 AM52 °FSunny.7 mph47%30.36 "Hg15 mi
10:00 AM46 °FSunny.5 mph62%30.37 "Hg15 mi
9:00 AM43 °FPassing clouds.3 mph76%30.38 "Hg15 mi
8:00 AM39 °FPassing clouds.6 mph87%30.38 "Hg15 mi
7:00 AM30 °FIce fog.2 mph100%30.37 "Hg2 mi
6:00 AM30 °FScattered clouds.6 mph100%30.35 "Hg8 mi
5:00 AM32 °FOvercast.5 mph93%30.34 "Hg15 mi
4:00 AM34 °FOvercast.5 mph100%30.33 "Hg15 mi
3:00 AM34 °FMostly cloudy.6 mph100%30.32 "Hg15 mi
2:00 AM36 °FMostly cloudy.2 mph93%30.30 "Hg15 mi
1:00 AM37 °FOvercast.3 mph87%30.29 "Hg15 mi
12:00 AM37 °FOvercast.5 mph87%30.29 "Hg15 mi
11:00 PM
Sun, Apr 26
37 °FOvercast.6 mph87%30.30 "Hg15 mi
10:00 PM39 °FOvercast.6 mph81%30.30 "Hg15 mi
9:00 PM39 °FOvercast.7 mph81%30.29 "Hg15 mi
8:00 PM39 °FOvercast.8 mph81%30.28 "Hg15 mi
7:00 PM39 °FOvercast.12 mph81%30.27 "Hg15 mi
6:00 PM41 °FOvercast.12 mph76%30.25 "Hg15 mi
5:00 PM41 °FOvercast.13 mph76%30.22 "Hg15 mi
4:00 PM41 °FOvercast.14 mph76%30.22 "Hg15 mi
3:00 PM41 °FOvercast.13 mph76%30.21 "Hg15 mi
Weather by CustomWeather, © 2015

See weather overviewHow to use our weather pages